Time,TemperatureF,DewpointF,PressureIn,WindDirection,WindDirectionDegrees,WindSpeedMPH,WindSpeedGustMPH,Humidity,HourlyPrecipIn,Conditions,Clouds,dailyrainin,SoftwareType,DateUTC
2013-09-05 00:01:00,63.1,59.8,29.92,WNW,302,0.0,0.0,89,0.00,,,0.00,Wunderground v.1.15,2013-09-05 04:01:00,
2013-09-05 00:02:00,63.1,59.8,29.92,WNW,302,0.0,0.0,89,0.00,,,0.00,Wunderground v.1.15,2013-09-05 04:02:00,
2013-09-05 00:04:00,63.1,59.8,29.92,WNW,302,0.0,0.0,89,0.00,,,0.00,Wunderground v.1.15,2013-09-05 04:04:00,
2013-09-05 00:05:00,63.1,59.8,29.92,WNW,302,0.0,0.0,89,0.00,,,0.00,Wunderground v.1.15,2013-09-05 04:05:00,
2013-09-05 00:11:00,63.1,59.8,29.92,WNW,302,0.0,1.0,89,0.00,,,0.00,Wunderground v.1.15,2013-09-05 04:11:00,
2013-09-05 00:16:00,63.0,59.7,29.91,WNW,302,0.0,1.0,89,0.00,,,0.00,Wunderground v.1.15,2013-09-05 04:16:00,
2013-09-05 00:21:00,62.9,59.6,29.91,WNW,302,0.0,0.0,89,0.00,,,0.00,Wunderground v.1.15,2013-09-05 04:21:00,
2013-09-05 00:24:00,62.9,59.6,29.91,WNW,302,0.0,0.0,89,0.00,,,0.00,Wunderground v.1.15,2013-09-05 04:24:00,
2013-09-05 00:29:00,62.9,59.3,29.92,WNW,302,0.0,0.0,88,0.00,,,0.00,Wunderground v.1.15,2013-09-05 04:29:00,
2013-09-05 00:34:00,62.8,59.2,29.92,WNW,302,0.0,0.0,88,0.00,,,0.00,Wunderground v.1.15,2013-09-05 04:34:00,
2013-09-05 00:39:00,62.8,59.2,29.91,WNW,302,0.0,0.0,88,0.00,,,0.00,Wunderground v.1.15,2013-09-05 04:39:00,
2013-09-05 00:45:00,62.8,59.2,29.91,WNW,302,0.0,0.0,88,0.00,,,0.00,Wunderground v.1.15,2013-09-05 04:45:00,
2013-09-05 00:50:00,62.8,59.2,29.91,WNW,302,0.0,0.0,88,0.00,,,0.00,Wunderground v.1.15,2013-09-05 04:50:00,
2013-09-05 00:56:00,62.8,59.2,29.91,WNW,302,0.0,0.0,88,0.00,,,0.00,Wunderground v.1.15,2013-09-05 04:56:00,
2013-09-05 01:01:00,62.7,58.8,29.91,WNW,302,0.0,0.0,87,0.00,,,0.00,Wunderground v.1.15,2013-09-05 05:01:00,
2013-09-05 01:07:00,62.7,58.8,29.91,WNW,302,0.0,0.0,87,0.00,,,0.00,Wunderground v.1.15,2013-09-05 05:07:00,
2013-09-05 01:13:00,62.8,58.9,29.91,WNW,302,0.0,0.0,87,0.00,,,0.00,Wunderground v.1.15,2013-09-05 05:13:00,
2013-09-05 01:18:00,62.9,59.0,29.91,WNW,302,0.0,0.0,87,0.00,,,0.00,Wunderground v.1.15,2013-09-05 05:18:00,
2013-09-05 01:24:00,63.0,58.7,29.91,WNW,302,0.0,0.0,86,0.00,,,0.00,Wunderground v.1.15,2013-09-05 05:24:00,
2013-09-05 01:29:00,63.0,58.7,29.91,WNW,302,0.0,2.0,86,0.00,,,0.00,Wunderground v.1.15,2013-09-05 05:29:00,
2013-09-05 01:35:00,63.0,58.7,29.91,WNW,302,0.0,0.0,86,0.00,,,0.00,Wunderground v.1.15,2013-09-05 05:35:00,
2013-09-05 01:40:00,63.1,58.8,29.91,WNW,302,0.0,0.0,86,0.00,,,0.00,Wunderground v.1.15,2013-09-05 05:40:00,
2013-09-05 01:46:00,63.1,58.8,29.91,West,280,0.0,2.0,86,0.00,,,0.00,Wunderground v.1.15,2013-09-05 05:46:00,
2013-09-05 01:51:00,63.1,58.8,29.91,West,280,1.0,1.0,86,0.00,,,0.00,Wunderground v.1.15,2013-09-05 05:51:00,
2013-09-05 01:57:00,63.1,58.8,29.91,West,280,0.0,1.0,86,0.00,,,0.00,Wunderground v.1.15,2013-09-05 05:57:00,
2013-09-05 02:02:00,63.2,58.9,29.91,West,277,0.0,4.0,86,0.00,,,0.00,Wunderground v.1.15,2013-09-05 06:02:00,
2013-09-05 02:08:00,63.2,58.9,29.91,West,277,0.0,4.0,86,0.00,,,0.00,Wunderground v.1.15,2013-09-05 06:08:00,
2013-09-05 02:13:00,63.2,58.9,29.90,West,277,0.0,1.0,86,0.00,,,0.00,Wunderground v.1.15,2013-09-05 06:13:00,
2013-09-05 02:19:00,63.2,58.9,29.91,West,275,1.0,3.0,86,0.00,,,0.00,Wunderground v.1.15,2013-09-05 06:19:00,
2013-09-05 02:24:00,63.2,58.9,29.91,West,275,1.0,3.0,86,0.00,,,0.00,Wunderground v.1.15,2013-09-05 06:24:00,
2013-09-05 02:30:00,63.3,59.0,29.91,West,271,1.0,2.0,86,0.00,,,0.00,Wunderground v.1.15,2013-09-05 06:30:00,
2013-09-05 02:35:00,63.3,59.0,29.91,West,271,1.0,3.0,86,0.00,,,0.00,Wunderground v.1.15,2013-09-05 06:35:00,
2013-09-05 02:41:00,63.2,58.9,29.91,West,270,1.0,1.0,86,0.00,,,0.00,Wunderground v.1.15,2013-09-05 06:41:00,
2013-09-05 02:46:00,63.1,58.8,29.91,WNW,287,1.0,3.0,86,0.00,,,0.00,Wunderground v.1.15,2013-09-05 06:46:00,
2013-09-05 02:52:00,63.0,58.7,29.92,West,277,1.0,2.0,86,0.00,,,0.00,Wunderground v.1.15,2013-09-05 06:52:00,
2013-09-05 02:58:00,63.0,58.7,29.91,West,275,1.0,2.0,86,0.00,,,0.00,Wunderground v.1.15,2013-09-05 06:58:00,
2013-09-05 03:03:00,62.9,58.6,29.90,West,276,1.0,1.0,86,0.00,,,0.00,Wunderground v.1.15,2013-09-05 07:03:00,
2013-09-05 03:09:00,62.8,58.9,29.91,West,269,1.0,4.0,87,0.00,,,0.00,Wunderground v.1.15,2013-09-05 07:09:00,
2013-09-05 03:15:00,62.6,58.7,29.91,West,273,2.0,4.0,87,0.00,,,0.00,Wunderground v.1.15,2013-09-05 07:15:00,
2013-09-05 03:20:00,62.5,58.6,29.91,West,273,2.0,2.0,87,0.00,,,0.00,Wunderground v.1.15,2013-09-05 07:20:00,
2013-09-05 03:26:00,62.4,58.8,29.92,West,277,2.0,9.0,88,0.00,,,0.00,Wunderground v.1.15,2013-09-05 07:26:00,
2013-09-05 03:31:00,62.2,58.6,29.92,West,269,1.0,5.0,88,0.00,,,0.00,Wunderground v.1.15,2013-09-05 07:31:00,
2013-09-05 03:37:00,62.1,58.5,29.92,West,272,1.0,5.0,88,0.00,,,0.00,Wunderground v.1.15,2013-09-05 07:37:00,
2013-09-05 03:42:00,62.0,58.4,29.92,West,271,2.0,2.0,88,0.00,,,0.00,Wunderground v.1.15,2013-09-05 07:42:00,
2013-09-05 03:48:00,61.8,58.2,29.92,NW,314,1.0,2.0,88,0.00,,,0.00,Wunderground v.1.15,2013-09-05 07:48:00,
2013-09-05 03:53:00,61.7,58.1,29.92,West,277,1.0,3.0,88,0.00,,,0.00,Wunderground v.1.15,2013-09-05 07:53:00,
2013-09-05 03:58:00,61.6,58.0,29.93,WNW,300,1.0,4.0,88,0.00,,,0.00,Wunderground v.1.15,2013-09-05 07:58:00,
2013-09-05 04:04:00,61.3,57.7,29.93,WNW,300,1.0,2.0,88,0.00,,,0.00,Wunderground v.1.15,2013-09-05 08:04:00,
2013-09-05 04:09:00,61.1,57.5,29.93,WNW,299,1.0,2.0,88,0.00,,,0.00,Wunderground v.1.15,2013-09-05 08:09:00,
2013-09-05 04:14:00,61.0,57.4,29.93,WNW,300,0.0,2.0,88,0.00,,,0.00,Wunderground v.1.15,2013-09-05 08:14:00,
2013-09-05 04:20:00,60.9,57.3,29.93,NW,315,1.0,1.0,88,0.00,,,0.00,Wunderground v.1.15,2013-09-05 08:20:00,
2013-09-05 04:25:00,61.0,57.4,29.94,NW,306,1.0,5.0,88,0.00,,,0.00,Wunderground v.1.15,2013-09-05 08:25:00,
2013-09-05 04:31:00,60.7,57.1,29.94,NW,312,3.0,4.0,88,0.00,,,0.00,Wunderground v.1.15,2013-09-05 08:31:00,
2013-09-05 04:37:00,60.2,56.9,29.94,NW,326,3.0,6.0,89,0.00,,,0.00,Wunderground v.1.15,2013-09-05 08:37:00,
2013-09-05 04:43:00,59.5,56.6,29.94,NW,321,3.0,4.0,90,0.00,,,0.00,Wunderground v.1.15,2013-09-05 08:43:00,
2013-09-05 04:48:00,58.9,56.0,29.95,NW,318,2.0,4.0,90,0.00,,,0.00,Wunderground v.1.15,2013-09-05 08:48:00,
2013-09-05 04:54:00,58.4,55.5,29.95,NW,319,1.0,1.0,90,0.00,,,0.00,Wunderground v.1.15,2013-09-05 08:54:00,
2013-09-05 05:00:00,57.8,54.9,29.95,NW,319,0.0,0.0,90,0.00,,,0.00,Wunderground v.1.15,2013-09-05 09:00:00,
2013-09-05 05:05:00,57.4,54.2,29.95,NW,319,0.0,1.0,89,0.00,,,0.00,Wunderground v.1.15,2013-09-05 09:05:00,
2013-09-05 05:11:00,57.0,54.1,29.96,NW,319,0.0,2.0,90,0.00,,,0.00,Wunderground v.1.15,2013-09-05 09:11:00,
2013-09-05 05:17:00,56.6,53.4,29.96,NW,319,0.0,2.0,89,0.00,,,0.00,Wunderground v.1.15,2013-09-05 09:17:00,
2013-09-05 05:22:00,56.4,53.5,29.96,NW,319,0.0,0.0,90,0.00,,,0.00,Wunderground v.1.15,2013-09-05 09:22:00,
2013-09-05 05:27:00,56.1,53.8,29.97,NW,319,1.0,3.0,92,0.00,,,0.00,Wunderground v.1.15,2013-09-05 09:27:00,
2013-09-05 05:33:00,55.9,52.7,29.98,NW,319,1.0,1.0,89,0.00,,,0.00,Wunderground v.1.15,2013-09-05 09:33:00,
2013-09-05 05:38:00,55.8,52.6,29.98,NW,319,1.0,2.0,89,0.00,,,0.00,Wunderground v.1.15,2013-09-05 09:38:00,
2013-09-05 05:45:00,55.7,52.5,29.98,NW,319,0.0,0.0,89,0.00,,,0.00,Wunderground v.1.15,2013-09-05 09:45:00,
2013-09-05 05:50:00,55.5,52.6,29.98,NW,320,1.0,2.0,90,0.00,,,0.00,Wunderground v.1.15,2013-09-05 09:50:00,
2013-09-05 05:56:00,55.4,52.2,29.99,NW,320,1.0,2.0,89,0.00,,,0.00,Wunderground v.1.15,2013-09-05 09:56:00,
2013-09-05 06:01:00,55.3,52.1,29.99,NW,325,1.0,1.0,89,0.00,,,0.00,Wunderground v.1.15,2013-09-05 10:01:00,
2013-09-05 06:07:00,55.3,52.1,30.00,NW,323,2.0,4.0,89,0.00,,,0.00,Wunderground v.1.15,2013-09-05 10:07:00,
2013-09-05 06:12:00,55.2,52.0,30.00,NW,325,1.0,2.0,89,0.00,,,0.00,Wunderground v.1.15,2013-09-05 10:12:00,
2013-09-05 06:18:00,55.0,51.8,30.00,NW,325,0.0,2.0,89,0.00,,,0.00,Wunderground v.1.15,2013-09-05 10:18:00,
2013-09-05 06:24:00,54.8,51.6,30.01,NW,325,0.0,2.0,89,0.00,,,0.00,Wunderground v.1.15,2013-09-05 10:24:00,
2013-09-05 06:29:00,54.6,51.4,30.01,NW,325,0.0,2.0,89,0.00,,,0.00,Wunderground v.1.15,2013-09-05 10:29:00,
2013-09-05 06:35:00,54.4,51.2,30.01,NW,325,0.0,2.0,89,0.00,,,0.00,Wunderground v.1.15,2013-09-05 10:35:00,
2013-09-05 06:40:00,54.3,51.4,30.01,NW,325,0.0,0.0,90,0.00,,,0.00,Wunderground v.1.15,2013-09-05 10:40:00,
2013-09-05 06:45:00,54.1,51.2,30.01,NW,325,0.0,0.0,90,0.00,,,0.00,Wunderground v.1.15,2013-09-05 10:45:00,
2013-09-05 06:51:00,54.0,51.1,30.02,NW,325,0.0,0.0,90,0.00,,,0.00,Wunderground v.1.15,2013-09-05 10:51:00,
2013-09-05 06:56:00,53.9,51.0,30.02,NW,325,0.0,0.0,90,0.00,,,0.00,Wunderground v.1.15,2013-09-05 10:56:00,
2013-09-05 07:02:00,53.9,51.0,30.03,NW,325,0.0,0.0,90,0.00,,,0.00,Wunderground v.1.15,2013-09-05 11:02:00,
2013-09-05 07:07:00,53.8,50.9,30.03,NW,325,0.0,0.0,90,0.00,,,0.00,Wunderground v.1.15,2013-09-05 11:07:00,
2013-09-05 07:13:00,53.9,51.0,30.02,NW,325,0.0,0.0,90,0.00,,,0.00,Wunderground v.1.15,2013-09-05 11:13:00,
2013-09-05 07:19:00,53.9,51.0,30.02,NW,325,0.0,0.0,90,0.00,,,0.00,Wunderground v.1.15,2013-09-05 11:19:00,
2013-09-05 07:24:00,54.0,51.1,30.02,NW,325,0.0,0.0,90,0.00,,,0.00,Wunderground v.1.15,2013-09-05 11:24:00,
2013-09-05 07:29:00,54.1,51.2,30.02,NW,325,0.0,0.0,90,0.00,,,0.00,Wunderground v.1.15,2013-09-05 11:29:00,
2013-09-05 07:35:00,54.1,51.2,30.02,NW,325,0.0,1.0,90,0.00,,,0.00,Wunderground v.1.15,2013-09-05 11:35:00,
2013-09-05 07:40:00,54.1,51.2,30.02,NW,325,0.0,0.0,90,0.00,,,0.00,Wunderground v.1.15,2013-09-05 11:40:00,
2013-09-05 07:45:00,54.1,51.2,30.02,NW,325,0.0,0.0,90,0.00,,,0.00,Wunderground v.1.15,2013-09-05 11:45:00,
2013-09-05 07:51:00,54.1,51.2,30.03,NW,325,0.0,0.0,90,0.00,,,0.00,Wunderground v.1.15,2013-09-05 11:51:00,
2013-09-05 07:56:00,54.2,51.3,30.03,NW,325,0.0,0.0,90,0.00,,,0.00,Wunderground v.1.15,2013-09-05 11:56:00,
2013-09-05 08:02:00,54.3,51.4,30.04,NW,325,0.0,1.0,90,0.00,,,0.00,Wunderground v.1.15,2013-09-05 12:02:00,
2013-09-05 08:08:00,54.4,51.5,30.04,NW,325,0.0,1.0,90,0.00,,,0.00,Wunderground v.1.15,2013-09-05 12:08:00,
2013-09-05 08:14:00,54.4,51.5,30.04,NW,325,0.0,0.0,90,0.00,,,0.00,Wunderground v.1.15,2013-09-05 12:14:00,
2013-09-05 08:19:00,54.6,51.7,30.04,NW,325,0.0,1.0,90,0.00,,,0.00,Wunderground v.1.15,2013-09-05 12:19:00,
2013-09-05 08:25:00,54.6,51.7,30.05,NW,325,1.0,3.0,90,0.00,,,0.00,Wunderground v.1.15,2013-09-05 12:25:00,
2013-09-05 08:30:00,54.7,51.8,30.04,NW,325,1.0,1.0,90,0.00,,,0.00,Wunderground v.1.15,2013-09-05 12:30:00,
2013-09-05 08:35:00,-999.9,-99.9,30.05,North,32767,-999.0,1.0,255,-99.99,,,0.00,Wunderground v.1.15,2013-09-05 12:35:00,
2013-09-05 08:41:00,55.1,52.2,30.05,NW,325,0.0,0.0,90,0.00,,,0.00,Wunderground v.1.15,2013-09-05 12:41:00,
2013-09-05 08:46:00,55.2,52.0,30.05,NW,325,0.0,1.0,89,0.00,,,0.00,Wunderground v.1.15,2013-09-05 12:46:00,
2013-09-05 08:52:00,55.3,52.1,30.05,NW,324,0.0,1.0,89,0.00,,,0.00,Wunderground v.1.15,2013-09-05 12:52:00,
2013-09-05 08:57:00,55.6,52.4,30.05,West,280,1.0,4.0,89,0.00,,,0.00,Wunderground v.1.15,2013-09-05 12:57:00,
2013-09-05 09:03:00,55.9,52.4,30.06,WNW,283,1.0,3.0,88,0.00,,,0.00,Wunderground v.1.15,2013-09-05 13:03:00,
2013-09-05 09:20:00,57.1,51.3,30.06,NNW,331,2.0,2.0,81,0.00,,,0.00,Wunderground v.1.15,2013-09-05 13:20:00,
2013-09-05 09:25:00,57.4,51.6,30.06,NNW,333,2.0,2.0,81,0.00,,,0.00,Wunderground v.1.15,2013-09-05 13:25:00,
2013-09-05 09:31:00,57.7,51.6,30.06,NNW,328,2.0,3.0,80,0.00,,,0.00,Wunderground v.1.15,2013-09-05 13:31:00,
2013-09-05 09:37:00,58.0,51.9,30.06,WNW,290,1.0,3.0,80,0.00,,,0.00,Wunderground v.1.15,2013-09-05 13:37:00,
2013-09-05 09:42:00,58.2,50.7,30.07,NNW,330,1.0,2.0,76,0.00,,,0.00,Wunderground v.1.15,2013-09-05 13:42:00,
2013-09-05 09:47:00,58.5,51.3,30.06,NNW,327,1.0,5.0,77,0.00,,,0.00,Wunderground v.1.15,2013-09-05 13:47:00,
2013-09-05 09:53:00,58.9,51.3,30.07,NNW,331,2.0,3.0,76,0.00,,,0.00,Wunderground v.1.15,2013-09-05 13:53:00,
2013-09-05 09:59:00,59.4,51.1,30.07,NW,306,2.0,3.0,74,0.00,,,0.00,Wunderground v.1.15,2013-09-05 13:59:00,
2013-09-05 10:04:00,60.0,50.9,30.07,NNW,328,2.0,3.0,72,0.00,,,0.00,Wunderground v.1.15,2013-09-05 14:04:00,
2013-09-05 10:10:00,60.7,50.9,30.07,NNW,330,2.0,2.0,70,0.00,,,0.00,Wunderground v.1.15,2013-09-05 14:10:00,
2013-09-05 10:16:00,60.8,49.0,30.07,NNW,340,2.0,3.0,65,0.00,,,0.00,Wunderground v.1.15,2013-09-05 14:16:00,
2013-09-05 10:21:00,61.2,50.6,30.07,NNW,329,2.0,2.0,68,0.00,,,0.00,Wunderground v.1.15,2013-09-05 14:21:00,
2013-09-05 10:27:00,61.9,50.8,30.07,NNW,341,2.0,6.0,67,0.00,,,0.00,Wunderground v.1.15,2013-09-05 14:27:00,
2013-09-05 10:32:00,62.4,51.3,30.07,NW,307,2.0,4.0,67,0.00,,,0.00,Wunderground v.1.15,2013-09-05 14:32:00,
2013-09-05 10:38:00,62.3,50.4,30.07,NNE,24,3.0,6.0,65,0.00,,,0.00,Wunderground v.1.15,2013-09-05 14:38:00,
2013-09-05 10:43:00,62.2,49.9,30.07,NNW,343,2.0,3.0,64,0.00,,,0.00,Wunderground v.1.15,2013-09-05 14:43:00,
2013-09-05 10:49:00,62.7,51.2,30.07,NW,313,2.0,6.0,66,0.00,,,0.00,Wunderground v.1.15,2013-09-05 14:49:00,
2013-09-05 10:54:00,62.9,50.1,30.07,NNE,30,3.0,5.0,63,0.00,,,0.00,Wunderground v.1.15,2013-09-05 14:54:00,
2013-09-05 10:59:00,62.9,51.4,30.07,North,10,3.0,5.0,66,0.00,,,0.00,Wunderground v.1.15,2013-09-05 14:59:00,
2013-09-05 11:05:00,63.4,49.3,30.07,NW,325,1.0,3.0,60,0.00,,,0.00,Wunderground v.1.15,2013-09-05 15:05:00,
2013-09-05 11:11:00,63.5,48.5,30.07,West,267,3.0,5.0,58,0.00,,,0.00,Wunderground v.1.15,2013-09-05 15:11:00,
2013-09-05 11:17:00,63.5,49.4,30.07,NW,323,3.0,5.0,60,0.00,,,0.00,Wunderground v.1.15,2013-09-05 15:17:00,
2013-09-05 11:22:00,64.7,50.5,30.07,NNW,336,2.0,6.0,60,0.00,,,0.00,Wunderground v.1.15,2013-09-05 15:22:00,
2013-09-05 11:27:00,64.2,47.7,30.07,NW,326,2.0,7.0,55,0.00,,,0.00,Wunderground v.1.15,2013-09-05 15:27:00,
2013-09-05 11:33:00,64.6,46.1,30.07,NNW,333,3.0,5.0,51,0.00,,,0.00,Wunderground v.1.15,2013-09-05 15:33:00,
2013-09-05 11:39:00,65.2,48.1,30.07,WNW,294,2.0,5.0,54,0.00,,,0.00,Wunderground v.1.15,2013-09-05 15:39:00,
2013-09-05 11:44:00,65.2,48.1,30.07,NW,304,2.0,6.0,54,0.00,,,0.00,Wunderground v.1.15,2013-09-05 15:44:00,
2013-09-05 11:50:00,65.1,47.0,30.07,NW,317,3.0,3.0,52,0.00,,,0.00,Wunderground v.1.15,2013-09-05 15:50:00,
2013-09-05 11:55:00,65.4,47.8,30.07,WSW,248,3.0,9.0,53,0.00,,,0.00,Wunderground v.1.15,2013-09-05 15:55:00,
2013-09-05 12:01:00,65.2,47.6,30.07,NW,318,5.0,5.0,53,0.00,,,0.00,Wunderground v.1.15,2013-09-05 16:01:00,
2013-09-05 12:07:00,65.2,45.0,30.07,NNW,338,6.0,11.0,48,0.00,,,0.00,Wunderground v.1.15,2013-09-05 16:07:00,
2013-09-05 12:13:00,65.3,44.5,30.08,WNW,299,6.0,10.0,47,0.00,,,0.00,Wunderground v.1.15,2013-09-05 16:13:00,
2013-09-05 12:19:00,65.3,44.5,30.07,NW,320,7.0,10.0,47,0.00,,,0.00,Wunderground v.1.15,2013-09-05 16:19:00,
2013-09-05 12:24:00,64.9,45.3,30.08,NW,320,5.0,8.0,49,0.00,,,0.00,Wunderground v.1.15,2013-09-05 16:24:00,
2013-09-05 12:30:00,64.2,46.2,30.08,NW,325,4.0,4.0,52,0.00,,,0.01,Wunderground v.1.15,2013-09-05 16:30:00,
2013-09-05 12:36:00,63.8,45.8,30.07,NNW,327,3.0,7.0,52,0.00,,,0.01,Wunderground v.1.15,2013-09-05 16:36:00,
2013-09-05 12:42:00,63.6,44.6,30.07,NW,323,4.0,5.0,50,0.00,,,0.01,Wunderground v.1.15,2013-09-05 16:42:00,
2013-09-05 12:48:00,64.3,45.8,30.07,NW,319,5.0,11.0,51,0.00,,,0.01,Wunderground v.1.15,2013-09-05 16:48:00,
2013-09-05 12:53:00,64.3,46.3,30.07,WNW,293,5.0,7.0,52,0.00,,,0.01,Wunderground v.1.15,2013-09-05 16:53:00,
2013-09-05 12:59:00,64.0,47.0,30.08,NNW,336,3.0,7.0,54,0.00,,,0.01,Wunderground v.1.15,2013-09-05 16:59:00,
2013-09-05 13:04:00,63.8,46.8,30.08,NW,316,3.0,6.0,54,0.00,,,0.01,Wunderground v.1.15,2013-09-05 17:04:00,
2013-09-05 13:10:00,64.5,46.5,30.08,WNW,302,4.0,4.0,52,0.00,,,0.01,Wunderground v.1.15,2013-09-05 17:10:00,
2013-09-05 13:16:00,65.5,46.9,30.08,WNW,293,5.0,7.0,51,0.00,,,0.01,Wunderground v.1.15,2013-09-05 17:16:00,
2013-09-05 13:22:00,65.8,45.0,30.08,NW,317,5.0,6.0,47,0.00,,,0.01,Wunderground v.1.15,2013-09-05 17:22:00,
2013-09-05 13:27:00,65.7,45.5,30.08,NNW,330,5.0,12.0,48,0.00,,,0.01,Wunderground v.1.15,2013-09-05 17:27:00,
2013-09-05 13:33:00,65.8,46.1,30.08,WNW,284,6.0,11.0,49,0.00,,,0.01,Wunderground v.1.15,2013-09-05 17:33:00,
2013-09-05 13:39:00,65.8,46.1,30.08,NW,326,7.0,11.0,49,0.00,,,0.01,Wunderground v.1.15,2013-09-05 17:39:00,
2013-09-05 13:45:00,66.3,46.6,30.08,NW,307,6.0,9.0,49,0.00,,,0.01,Wunderground v.1.15,2013-09-05 17:45:00,
2013-09-05 13:50:00,65.8,46.1,30.08,NW,304,6.0,6.0,49,0.00,,,0.01,Wunderground v.1.15,2013-09-05 17:50:00,
2013-09-05 13:56:00,66.4,47.7,30.08,NNW,339,5.0,11.0,51,0.00,,,0.01,Wunderground v.1.15,2013-09-05 17:56:00,
2013-09-05 14:02:00,66.4,46.7,30.08,NW,306,5.0,5.0,49,0.00,,,0.01,Wunderground v.1.15,2013-09-05 18:02:00,
2013-09-05 14:08:00,66.4,48.7,30.08,NW,314,4.0,6.0,53,0.00,,,0.01,Wunderground v.1.15,2013-09-05 18:08:00,
2013-09-05 14:14:00,66.4,46.1,30.08,NW,315,4.0,10.0,48,0.00,,,0.01,Wunderground v.1.15,2013-09-05 18:14:00,
2013-09-05 14:19:00,64.5,46.0,30.08,NW,320,4.0,10.0,51,0.00,,,0.01,Wunderground v.1.15,2013-09-05 18:19:00,
2013-09-05 14:25:00,64.5,48.0,30.08,NW,309,5.0,6.0,55,0.00,,,0.01,Wunderground v.1.15,2013-09-05 18:25:00,
2013-09-05 14:31:00,65.7,45.5,30.08,West,267,5.0,10.0,48,0.00,,,0.01,Wunderground v.1.15,2013-09-05 18:31:00,
2013-09-05 14:36:00,66.2,45.9,30.08,NW,317,4.0,10.0,48,0.00,,,0.01,Wunderground v.1.15,2013-09-05 18:36:00,
2013-09-05 14:42:00,66.4,46.7,30.08,NW,310,5.0,10.0,49,0.00,,,0.01,Wunderground v.1.15,2013-09-05 18:42:00,
2013-09-05 14:47:00,65.8,43.3,30.08,NNW,331,6.0,10.0,44,0.00,,,0.01,Wunderground v.1.15,2013-09-05 18:47:00,
2013-09-05 14:53:00,66.0,46.3,30.08,WNW,302,5.0,6.0,49,0.00,,,0.01,Wunderground v.1.15,2013-09-05 18:53:00,
2013-09-05 14:58:00,66.2,44.8,30.08,NNW,327,4.0,7.0,46,0.00,,,0.01,Wunderground v.1.15,2013-09-05 18:58:00,
2013-09-05 15:04:00,66.0,45.2,30.08,NW,305,5.0,10.0,47,0.00,,,0.01,Wunderground v.1.15,2013-09-05 19:04:00,
2013-09-05 15:10:00,66.3,46.0,30.08,NNW,329,6.0,6.0,48,0.00,,,0.01,Wunderground v.1.15,2013-09-05 19:10:00,
2013-09-05 15:15:00,66.2,46.5,30.08,NNW,344,5.0,15.0,49,0.00,,,0.01,Wunderground v.1.15,2013-09-05 19:15:00,
2013-09-05 15:20:00,65.9,45.1,30.08,NW,321,6.0,6.0,47,0.00,,,0.01,Wunderground v.1.15,2013-09-05 19:20:00,
2013-09-05 15:26:00,65.7,44.9,30.08,NW,319,5.0,9.0,47,0.00,,,0.01,Wunderground v.1.15,2013-09-05 19:26:00,
2013-09-05 15:32:00,65.5,43.0,30.09,NW,317,5.0,8.0,44,0.00,,,0.01,Wunderground v.1.15,2013-09-05 19:32:00,
2013-09-05 15:37:00,65.6,45.4,30.09,North,355,6.0,8.0,48,0.00,,,0.01,Wunderground v.1.15,2013-09-05 19:37:00,
2013-09-05 15:43:00,65.2,43.3,30.08,NW,309,5.0,7.0,45,0.00,,,0.01,Wunderground v.1.15,2013-09-05 19:43:00,
2013-09-05 15:49:00,65.5,44.7,30.08,NNW,327,5.0,10.0,47,0.00,,,0.01,Wunderground v.1.15,2013-09-05 19:49:00,
2013-09-05 15:54:00,65.4,44.6,30.08,NW,307,5.0,8.0,47,0.00,,,0.01,Wunderground v.1.15,2013-09-05 19:54:00,
2013-09-05 16:00:00,65.0,43.7,30.08,NW,304,6.0,6.0,46,0.00,,,0.01,Wunderground v.1.15,2013-09-05 20:00:00,
2013-09-05 16:05:00,65.2,43.3,30.08,WNW,296,4.0,6.0,45,0.00,,,0.01,Wunderground v.1.15,2013-09-05 20:05:00,
2013-09-05 16:11:00,65.6,45.4,30.08,NW,319,3.0,3.0,48,0.00,,,0.01,Wunderground v.1.15,2013-09-05 20:11:00,
2013-09-05 16:17:00,65.9,46.2,30.08,NW,306,3.0,9.0,49,0.00,,,0.01,Wunderground v.1.15,2013-09-05 20:17:00,
2013-09-05 16:22:00,65.1,44.4,30.09,NW,317,3.0,7.0,47,0.00,,,0.01,Wunderground v.1.15,2013-09-05 20:22:00,
2013-09-05 16:28:00,64.2,44.1,30.09,WNW,297,4.0,9.0,48,0.00,,,0.01,Wunderground v.1.15,2013-09-05 20:28:00,
2013-09-05 16:34:00,63.6,44.1,30.09,NW,309,4.0,5.0,49,0.00,,,0.01,Wunderground v.1.15,2013-09-05 20:34:00,
2013-09-05 16:39:00,63.7,44.7,30.09,NW,326,5.0,7.0,50,0.00,,,0.01,Wunderground v.1.15,2013-09-05 20:39:00,
2013-09-05 16:45:00,64.0,44.4,30.09,NW,305,6.0,10.0,49,0.00,,,0.01,Wunderground v.1.15,2013-09-05 20:45:00,
2013-09-05 16:51:00,64.1,45.6,30.10,WNW,282,6.0,6.0,51,0.00,,,0.01,Wunderground v.1.15,2013-09-05 20:51:00,
2013-09-05 16:56:00,64.0,45.5,30.10,WNW,298,5.0,8.0,51,0.00,,,0.01,Wunderground v.1.15,2013-09-05 20:56:00,
2013-09-05 17:02:00,63.8,44.3,30.10,NW,315,5.0,11.0,49,0.00,,,0.01,Wunderground v.1.15,2013-09-05 21:02:00,
2013-09-05 17:08:00,63.5,45.0,30.10,WNW,298,6.0,11.0,51,0.00,,,0.01,Wunderground v.1.15,2013-09-05 21:08:00,
2013-09-05 17:13:00,63.4,43.4,30.10,WNW,290,5.0,12.0,48,0.00,,,0.01,Wunderground v.1.15,2013-09-05 21:13:00,
2013-09-05 17:19:00,63.6,44.6,30.10,West,281,3.0,12.0,50,0.00,,,0.01,Wunderground v.1.15,2013-09-05 21:19:00,
2013-09-05 17:24:00,63.5,45.0,30.10,NW,309,3.0,9.0,51,0.00,,,0.01,Wunderground v.1.15,2013-09-05 21:24:00,
2013-09-05 17:30:00,63.2,44.2,30.10,NW,321,4.0,4.0,50,0.00,,,0.01,Wunderground v.1.15,2013-09-05 21:30:00,
2013-09-05 17:35:00,63.2,45.3,30.10,NNW,330,4.0,8.0,52,0.00,,,0.01,Wunderground v.1.15,2013-09-05 21:35:00,
2013-09-05 17:41:00,62.9,44.5,30.11,West,270,4.0,4.0,51,0.00,,,0.01,Wunderground v.1.15,2013-09-05 21:41:00,
2013-09-05 17:46:00,62.6,43.7,30.11,WNW,293,5.0,13.0,50,0.00,,,0.01,Wunderground v.1.15,2013-09-05 21:46:00,
2013-09-05 17:52:00,62.2,43.8,30.11,NW,326,4.0,4.0,51,0.00,,,0.01,Wunderground v.1.15,2013-09-05 21:52:00,
2013-09-05 17:57:00,62.0,44.7,30.11,WNW,296,4.0,10.0,53,0.00,,,0.01,Wunderground v.1.15,2013-09-05 21:57:00,
2013-09-05 18:03:00,61.8,43.5,30.12,West,281,4.0,7.0,51,0.00,,,0.01,Wunderground v.1.15,2013-09-05 22:03:00,
2013-09-05 18:09:00,61.5,42.2,30.12,WNW,302,5.0,10.0,49,0.00,,,0.01,Wunderground v.1.15,2013-09-05 22:09:00,
2013-09-05 18:14:00,61.3,43.0,30.12,WNW,302,4.0,5.0,51,0.00,,,0.01,Wunderground v.1.15,2013-09-05 22:14:00,
2013-09-05 18:20:00,61.1,43.3,30.12,NNW,328,2.0,4.0,52,0.00,,,0.01,Wunderground v.1.15,2013-09-05 22:20:00,
2013-09-05 18:25:00,60.9,43.6,30.12,NW,305,3.0,6.0,53,0.00,,,0.01,Wunderground v.1.15,2013-09-05 22:25:00,
2013-09-05 18:31:00,60.6,44.3,30.12,NW,319,3.0,3.0,55,0.00,,,0.01,Wunderground v.1.15,2013-09-05 22:31:00,
2013-09-05 18:37:00,60.3,44.1,30.13,NW,305,3.0,4.0,55,0.00,,,0.01,Wunderground v.1.15,2013-09-05 22:37:00,
2013-09-05 18:42:00,60.1,43.9,30.13,NW,313,2.0,4.0,55,0.00,,,0.01,Wunderground v.1.15,2013-09-05 22:42:00,
2013-09-05 18:48:00,59.8,43.6,30.13,NW,325,2.0,5.0,55,0.00,,,0.01,Wunderground v.1.15,2013-09-05 22:48:00,
2013-09-05 18:54:00,59.3,43.1,30.13,NW,318,3.0,4.0,55,0.00,,,0.01,Wunderground v.1.15,2013-09-05 22:54:00,
2013-09-05 18:59:00,58.8,43.1,30.13,NW,313,2.0,4.0,56,0.00,,,0.01,Wunderground v.1.15,2013-09-05 22:59:00,
2013-09-05 19:05:00,58.4,43.7,30.13,NW,321,1.0,3.0,58,0.00,,,0.01,Wunderground v.1.15,2013-09-05 23:05:00,
2013-09-05 19:11:00,57.9,43.7,30.14,NW,314,1.0,1.0,59,0.00,,,0.01,Wunderground v.1.15,2013-09-05 23:11:00,
2013-09-05 19:17:00,57.5,43.7,30.14,NW,313,1.0,1.0,60,0.00,,,0.01,Wunderground v.1.15,2013-09-05 23:17:00,
2013-09-05 19:23:00,57.0,44.1,30.14,NW,313,0.0,0.0,62,0.00,,,0.01,Wunderground v.1.15,2013-09-05 23:23:00,
2013-09-05 19:28:00,56.6,44.1,30.14,NW,314,0.0,2.0,63,0.00,,,0.01,Wunderground v.1.15,2013-09-05 23:28:00,
2013-09-05 19:34:00,56.2,44.6,30.14,NW,315,0.0,1.0,65,0.00,,,0.01,Wunderground v.1.15,2013-09-05 23:34:00,
2013-09-05 19:40:00,55.8,44.6,30.14,NW,315,0.0,0.0,66,0.00,,,0.01,Wunderground v.1.15,2013-09-05 23:40:00,
2013-09-05 19:45:00,55.5,44.3,30.15,NW,315,0.0,0.0,66,0.00,,,0.01,Wunderground v.1.15,2013-09-05 23:45:00,
2013-09-05 19:51:00,55.1,44.3,30.15,NW,315,0.0,0.0,67,0.00,,,0.01,Wunderground v.1.15,2013-09-05 23:51:00,
2013-09-05 19:57:00,54.9,44.1,30.15,NW,315,0.0,1.0,67,0.00,,,0.01,Wunderground v.1.15,2013-09-05 23:57:00,
2013-09-05 20:02:00,54.7,44.3,30.15,NW,315,0.0,0.0,68,0.00,,,0.01,Wunderground v.1.15,2013-09-06 00:02:00,
2013-09-05 20:08:00,54.4,44.1,30.15,NW,315,0.0,0.0,68,0.00,,,0.01,Wunderground v.1.15,2013-09-06 00:08:00,
2013-09-05 20:14:00,54.1,44.2,30.15,NW,315,0.0,0.0,69,0.00,,,0.01,Wunderground v.1.15,2013-09-06 00:14:00,
2013-09-05 20:19:00,53.8,44.2,30.16,NW,315,0.0,1.0,70,0.00,,,0.01,Wunderground v.1.15,2013-09-06 00:19:00,
2013-09-05 20:25:00,53.5,44.3,30.16,NW,315,0.0,0.0,71,0.00,,,0.01,Wunderground v.1.15,2013-09-06 00:25:00,
2013-09-05 20:30:00,53.3,44.1,30.17,NW,315,0.0,0.0,71,0.00,,,0.01,Wunderground v.1.15,2013-09-06 00:30:00,
2013-09-05 20:36:00,53.0,44.2,30.17,NW,315,0.0,0.0,72,0.00,,,0.01,Wunderground v.1.15,2013-09-06 00:36:00,
2013-09-05 20:42:00,52.7,44.3,30.17,NW,315,0.0,0.0,73,0.00,,,0.01,Wunderground v.1.15,2013-09-06 00:42:00,
2013-09-05 20:48:00,52.4,44.4,30.17,NW,315,0.0,0.0,74,0.00,,,0.01,Wunderground v.1.15,2013-09-06 00:48:00,
2013-09-05 20:54:00,52.1,44.4,30.17,NW,315,0.0,0.0,75,0.00,,,0.01,Wunderground v.1.15,2013-09-06 00:54:00,
2013-09-05 20:59:00,51.7,44.4,30.17,NW,315,0.0,0.0,76,0.00,,,0.01,Wunderground v.1.15,2013-09-06 00:59:00,
2013-09-05 21:05:00,51.3,44.3,30.17,NW,315,0.0,0.0,77,0.00,,,0.01,Wunderground v.1.15,2013-09-06 01:05:00,
2013-09-05 21:11:00,50.8,44.5,30.17,NW,315,0.0,0.0,79,0.00,,,0.01,Wunderground v.1.15,2013-09-06 01:11:00,
2013-09-05 21:17:00,50.4,44.5,30.17,NW,315,0.0,0.0,80,0.00,,,0.01,Wunderground v.1.15,2013-09-06 01:17:00,
2013-09-05 21:23:00,50.1,44.2,30.18,NW,315,0.0,0.0,80,0.00,,,0.01,Wunderground v.1.15,2013-09-06 01:23:00,
2013-09-05 21:28:00,49.9,44.3,30.18,NW,315,0.0,0.0,81,0.00,,,0.01,Wunderground v.1.15,2013-09-06 01:28:00,
2013-09-05 21:34:00,49.8,44.2,30.18,NW,315,0.0,0.0,81,0.00,,,0.01,Wunderground v.1.15,2013-09-06 01:34:00,
2013-09-05 21:39:00,49.6,44.3,30.18,NW,315,0.0,0.0,82,0.00,,,0.01,Wunderground v.1.15,2013-09-06 01:39:00,
2013-09-05 21:45:00,49.4,44.5,30.18,NW,315,0.0,0.0,83,0.00,,,0.01,Wunderground v.1.15,2013-09-06 01:45:00,
2013-09-05 21:51:00,49.0,44.1,30.19,NW,315,0.0,0.0,83,0.00,,,0.01,Wunderground v.1.15,2013-09-06 01:51:00,
2013-09-05 21:56:00,48.6,44.0,30.19,NW,315,0.0,0.0,84,0.00,,,0.01,Wunderground v.1.15,2013-09-06 01:56:00,
2013-09-05 22:02:00,48.1,43.8,30.19,NW,315,0.0,0.0,85,0.00,,,0.01,Wunderground v.1.15,2013-09-06 02:02:00,
2013-09-05 22:08:00,47.6,43.3,30.19,NW,315,0.0,0.0,85,0.00,,,0.01,Wunderground v.1.15,2013-09-06 02:08:00,
2013-09-05 22:14:00,47.2,43.2,30.19,NW,315,0.0,0.0,86,0.00,,,0.01,Wunderground v.1.15,2013-09-06 02:14:00,
2013-09-05 22:19:00,46.9,43.2,30.19,NW,315,0.0,0.0,87,0.00,,,0.01,Wunderground v.1.15,2013-09-06 02:19:00,
2013-09-05 22:25:00,46.6,43.2,30.19,NW,315,0.0,0.0,88,0.00,,,0.01,Wunderground v.1.15,2013-09-06 02:25:00,
2013-09-05 22:30:00,46.3,42.9,30.20,NW,315,0.0,0.0,88,0.00,,,0.01,Wunderground v.1.15,2013-09-06 02:30:00,
2013-09-05 22:36:00,46.0,42.9,30.20,NW,315,0.0,0.0,89,0.00,,,0.01,Wunderground v.1.15,2013-09-06 02:36:00,
2013-09-05 22:42:00,45.8,42.7,30.20,NW,315,0.0,0.0,89,0.00,,,0.01,Wunderground v.1.15,2013-09-06 02:42:00,
2013-09-05 22:47:00,45.5,42.4,30.20,NW,315,0.0,0.0,89,0.00,,,0.01,Wunderground v.1.15,2013-09-06 02:47:00,
2013-09-05 22:53:00,45.3,42.5,30.21,NW,315,0.0,0.0,90,0.00,,,0.01,Wunderground v.1.15,2013-09-06 02:53:00,
2013-09-05 22:59:00,45.2,42.4,30.20,NW,315,0.0,0.0,90,0.00,,,0.01,Wunderground v.1.15,2013-09-06 02:59:00,
2013-09-05 23:04:00,45.1,42.3,30.20,NW,315,0.0,0.0,90,0.00,,,0.01,Wunderground v.1.15,2013-09-06 03:04:00,
2013-09-05 23:09:00,45.0,42.2,30.21,NW,315,0.0,0.0,90,0.00,,,0.01,Wunderground v.1.15,2013-09-06 03:09:00,
2013-09-05 23:15:00,44.9,42.1,30.20,NW,315,0.0,0.0,90,0.00,,,0.01,Wunderground v.1.15,2013-09-06 03:15:00,
2013-09-05 23:21:00,44.7,41.9,30.20,NW,315,0.0,0.0,90,0.00,,,0.01,Wunderground v.1.15,2013-09-06 03:21:00,
2013-09-05 23:27:00,44.6,41.8,30.20,NW,315,0.0,0.0,90,0.00,,,0.01,Wunderground v.1.15,2013-09-06 03:27:00,
2013-09-05 23:32:00,44.5,41.7,30.20,NW,315,0.0,0.0,90,0.00,,,0.01,Wunderground v.1.15,2013-09-06 03:32:00,
2013-09-05 23:38:00,44.3,41.6,30.20,NW,315,0.0,0.0,90,0.00,,,0.01,Wunderground v.1.15,2013-09-06 03:38:00,
2013-09-05 23:44:00,44.1,41.4,30.21,NW,315,0.0,0.0,90,0.00,,,0.01,Wunderground v.1.15,2013-09-06 03:44:00,
2013-09-05 23:49:00,43.8,41.1,30.21,NW,315,0.0,0.0,90,0.00,,,0.01,Wunderground v.1.15,2013-09-06 03:49:00,
2013-09-05 23:55:00,43.6,40.9,30.20,NW,315,0.0,0.0,90,0.00,,,0.01,Wunderground v.1.15,2013-09-06 03:55:00,